Tracking 29892 objects as of 21-Nov-2024
HD Live streaming from Space Station
objects crossing your sky now

QIANFAN-32

Track QIANFAN-32 now!
10-day predictions


NORAD ID: 61565
Int'l Code: 2024-185P
Perigee: 807.1 km
Apogee: 823.0 km
Inclination: 89.0 °
Period: 101.0 minutes
Semi major axis: 7186 km
RCS: Unknown
Launch date: October 15, 2024
Source: People's Republic of China (PRC)
Launch site: Taiyaun Space Center, China (TSC)
Your satellite tracking list
Your tracking list is empty




NASA's NSSDC Master Catalog

Two Line Element Set (TLE):
1 61565U 24185P   24326.13438088  .00000927  00000-0  38850-3 0  9990
2 61565  88.9884 122.0946 0011035 111.9503 248.2864 14.25168847 15022
Source of the keplerian elements: AFSPC